Location: Le Petit-Vavre
(46.5081°N, 1.5239°E)
Time: 14:20:35
(UTC+00:00)

Cosmos 2369 Rocket - Pass Details

Date: 03 March 2021
Orbit: 829 x 852 km, 71.0° (Epoch: 19 April)

Event Time Altitude Azimuth Distance (km) Brightness Sun altitude
Rises 21:28:29 0° 339° (NNW) 3,383 6.0 -37.7°
Reaches altitude 10° 21:31:18 10° 351° (N) 2,447 5.0 -38.0°
Enters shadow 21:32:38 16° 1° (N) 2,061 4.5 -38.2°
